K2MST Weather Reports


time (UTC)temp
F
wind
direction
speed
knots
gust
knots
rain 1hr
in
rain 24hr
in
rain mn
in
humidity
%
barometer
mb
20260902224521 77 180 8.7 13.9 0.00 1.88 1.88 80 1010.3
20260902223521 78 158 7.0 13.9 0.00 1.88 1.88 79 1010.4
20260902222542 78 180 9.6 15.6 0.00 1.88 1.88 79 1010.4
20260902221521 79 158 8.7 12.2 0.00 1.88 1.88 78 1010.2
20260902220521 79 158 7.0 13.0 0.00 1.88 1.88 77 1010.6
20260902215521 80 158 6.1 11.3 0.00 1.88 1.88 76 1011.5
20260902214521 80 180 6.1 11.3 0.00 1.88 1.88 75 1012.1
20260902213521 80 158 7.8 11.3 0.00 1.88 1.88 75 1012.5
20260902212521 80 180 6.1 9.6 0.00 1.88 1.88 75 1012.5
20260902211521 81 158 4.3 10.4 0.00 1.88 1.88 75 1012.9
20260902210521 81 180 4.3 7.8 0.00 1.88 1.88 75 1012.8
20260902205521 82 180 6.1 11.3 0.00 1.88 1.88 73 1012.7
20260902204521 83 180 6.1 10.4 0.00 1.88 1.88 71 1012.7
20260902203541 83 180 6.1 11.3 0.00 1.88 1.88 72 1012.7
20260902202520 83 180 8.7 13.9 0.00 1.88 1.88 71 1012.8
20260902201541 82 203 8.7 15.6 0.00 1.88 1.88 71 1012.8
20260902200521 82 180 8.7 14.8 0.00 1.88 1.88 72 1012.5
20260902195522 83 180 11.3 16.5 0.00 1.88 1.88 71 1012.3
20260902194521 82 158 9.6 16.5 0.00 1.88 1.88 71 1012.4
20260902193520 83 180 8.7 12.2 0.00 1.88 1.88 70 1012.4
20260902192521 83 180 10.4 17.4 0.00 1.88 1.88 69 1012.5
20260902191521 83 180 8.7 13.0 0.00 1.88 1.88 69 1012.6
20260902190520 84 180 8.7 16.5 0.00 1.88 1.88 68 1012.8
20260902185520 84 158 9.6 13.9 0.00 1.88 1.88 67 1012.8
20260902184521 85 158 7.8 12.2 0.00 1.88 1.88 66 1013.1
20260902183540 84 180 7.0 14.8 0.00 1.88 1.88 65 1013.2
20260902182520 84 180 8.7 13.9 0.00 1.88 1.88 66 1013.4
20260902181520 84 158 7.0 14.8 0.00 1.88 1.88 65 1013.3
20260902180520 83 180 7.8 12.2 0.00 1.88 1.88 66 1013.2
20260902175521 83 203 6.1 12.2 0.00 1.88 1.88 68 1013.1
20260902174520 82 203 7.0 12.2 0.00 1.88 1.88 73 1013.3
20260902173520 81 158 9.6 14.8 0.00 1.88 1.88 73 1013.2
20260902172641 80 158 7.8 13.0 0.00 1.88 1.88 75 1013.0
20260902171520 79 180 8.7 13.9 0.00 1.88 1.88 76 1013.1
20260902170520 77 180 8.7 16.5 0.00 1.88 1.88 77 1013.4
20260902165600 77 180 10.4 15.6 0.00 1.88 1.88 81 1013.3
20260902164522 76 158 8.7 14.8 0.00 1.88 1.88 83 1013.2
20260902163520 74 180 7.8 12.2 0.01 1.88 1.88 87 1013.3
20260902162520 71 180 9.6 14.8 0.07 1.88 1.88 90 1013.5
20260902161520 69 180 7.0 11.3 0.26 1.88 1.88 91 1013.7
20260902160540 68 180 6.1 9.6 0.58 1.88 1.88 91 1014.2
20260902155520 68 158 7.8 13.0 1.09 1.88 1.88 92 1014.2
20260902154520 67 180 7.8 13.9 1.15 1.88 1.88 93 1014.7
20260902153520 68 158 8.7 12.2 1.23 1.87 1.87 93 1014.9
20260902152540 68 158 8.7 11.3 1.36 1.81 1.81 93 1015.8
20260902151520 68 203 8.7 13.9 1.43 1.62 1.62 92 1016.9
20260902151053 0 135 7.0 7.8 1.16 1.30 1.30 93
20260902150021 69 180 7.0 10.4 1.17 1.22 1.22 93 1017.0
20260902145019 69 293 3.5 7.8 0.75 0.77 0.77 93 1017.7
20260902144040 69 248 1.7 2.6 0.68 0.69 0.69 93 1016.0
20260902143022 69 68 3.5 6.1 0.57 0.57 0.57 93 1015.1
20260902142042 70 225 0.9 2.6 0.29 0.29 0.29 93 1016.1
20260902141022 70 23 2.6 5.2 0.14 0.14 0.14 92 1015.4
20260902140021 70 338 2.6 4.3 0.05 0.05 0.05 92 1015.6
20260902135041 70 0.0 1.7 0.02 0.02 0.02 92 1014.9
20260902134042 70 0.0 1.7 0.01 0.01 0.01 92 1014.5
20260902133022 70 45 0.9 4.3 0.00 0.00 0.00 92 1014.8
20260902132021 70 0.0 1.7 0.00 0.00 0.00 92 1014.9
20260902131021 70 68 1.7 4.3 0.00 0.00 0.00 93 1014.8
20260902130021 70 0.0 1.7 0.00 0.00 0.00 93 1014.6
20260902125021 70 68 0.9 3.5 0.00 0.00 0.00 93 1014.4
20260902124021 70 68 0.9 2.6 0.00 0.00 0.00 93 1014.3
20260902123022 70 0.0 1.7 0.00 0.00 0.00 93 1014.5
20260902122022 69 0.0 0.9 0.00 0.00 0.00 93 1014.6
20260902121021 69 0.0 1.7 0.00 0.00 0.00 94 1014.2
20260902120021 69 0.0 1.7 0.00 0.00 0.00 94 1013.8
20260902115021 68 0.0 0.0 0.00 0.00 0.00 94 1014.0
20260902114021 68 0.0 0.0 0.00 0.00 0.00 94 1013.8
20260902113021 68 0.0 1.7 0.00 0.00 0.00 94 1013.8
20260902112021 67 0.0 0.9 0.00 0.00 0.00 94 1013.9
20260902111021 67 0.0 0.9 0.00 0.00 0.00 94 1013.8
20260902110041 67 0.0 0.0 0.00 0.00 0.00 94 1013.7
20260902105021 66 0.0 0.0 0.00 0.00 0.00 94 1013.6
20260902104021 66 0.0 0.0 0.00 0.00 0.00 94 1013.6
20260902103020 66 0.0 0.0 0.00 0.00 0.00 94 1013.7
20260902102020 66 0.0 0.0 0.00 0.00 0.00 94 1014.2
20260902101041 66 0.0 0.0 0.00 0.00 0.00 94 1014.2
20260902100022 66 0.0 0.0 0.00 0.00 0.00 93 1014.3
20260902095041 66 0.0 0.9 0.00 0.00 0.00 93 1014.4
20260902094043 66 0.0 0.0 0.00 0.01 0.00 93 1014.3
20260902093040 66 0.0 0.0 0.00 0.06 0.00 93 1014.5
20260902092021 66 0.0 0.0 0.00 0.08 0.00 93 1014.5
20260902091020 66 0.0 0.0 0.00 0.08 0.00 93 1014.3
20260902090041 66 0.0 0.0 0.00 0.08 0.00 93 1014.5
20260902085021 66 0.0 0.0 0.00 0.08 0.00 93 1014.5
20260902084020 67 0.0 0.0 0.00 0.08 0.00 93 1014.6
20260902083040 67 0.0 0.0 0.00 0.08 0.00 93 1014.7
20260902082020 66 0.0 0.0 0.00 0.08 0.00 93 1014.4
20260902081021 66 0.0 0.0 0.00 0.08 0.00 93 1014.5
20260902080020 67 0.0 2.6 0.00 0.08 0.00 93 1014.5
20260902075042 67 0.0 0.0 0.00 0.08 0.00 93 1014.4
20260902074020 67 0.0 0.0 0.00 0.08 0.00 93 1014.4
20260902073022 67 0.0 0.0 0.00 0.08 0.00 93 1014.3
20260902072020 67 0.0 0.9 0.00 0.08 0.00 93 1014.3
20260902071023 67 0.0 0.0 0.00 0.09 0.00 92 1014.1
20260902070020 67 0.0 1.7 0.00 0.13 0.00 92 1014.2
20260902065021 68 0.0 1.7 0.00 0.14 0.00 92 1014.1
20260902064020 68 0.0 0.0 0.00 0.14 0.00 92 1014.2
20260902063021 68 0.0 0.0 0.00 0.14 0.00 92 1014.3
20260902062040 68 0.0 0.0 0.00 0.14 0.00 92 1014.5
20260902061020 68 0.0 0.0 0.00 0.14 0.00 92 1014.4
20260902060020 68 0.0 0.0 0.00 0.14 0.00 92 1014.2
20260902055020 68 0.0 0.0 0.00 0.14 0.00 92 1014.3
20260902054020 68 0.0 0.0 0.00 0.14 0.00 91 1014.3
20260902053020 68 0.0 0.0 0.00 0.14 0.00 91 1014.3
20260902052020 68 0.0 0.0 0.00 0.14 0.00 91 1014.1
20260902051040 68 0.0 0.0 0.00 0.14 0.00 91 1014.1
20260902050021 69 0.0 0.0 0.00 0.14 0.00 91 1014.1
20260902045021 69 0.0 0.0 0.00 0.14 0.00 91 1014.1
20260902044021 69 0.0 0.0 0.00 0.14 0.00 90 1014.1
20260902043024 69 0.0 0.0 0.00 0.14 0.00 90 1014.0
20260902042022 69 0.0 0.0 0.00 0.14 0.00 90 1013.9
20260902041021 69 0.0 0.0 0.00 0.14 0.00 90 1013.9
20260902040019 70 0.0 0.0 0.00 0.15 0.15 90 1013.9
20260902035022 70 0.0 0.0 0.00 0.15 0.15 90 1013.9
20260902034022 70 0.0 0.0 0.00 0.15 0.15 89 1013.8
20260902033022 70 0.0 0.0 0.00 0.15 0.15 89 1013.7
20260902032021 70 0.0 0.0 0.00 0.15 0.15 89 1013.9
20260902031041 70 0.0 0.9 0.00 0.15 0.15 88 1014.0
20260902030021 71 0.0 1.7 0.00 0.15 0.15 88
20260902025021 71 113 0.9 2.6 0.00 0.15 0.15 88
20260902024022 71 0.0 0.0 0.00 0.15 0.15 88
20260902023042 71 90 0.9 2.6 0.00 0.15 0.15 87 1014.0
20260902022021 72 135 0.9 2.6 0.00 0.15 0.15 87 1014.0
20260902021021 72 45 0.9 2.6 0.00 0.15 0.15 87 1013.9
20260902020041 72 45 0.9 2.6 0.00 0.15 0.15 87 1014.1
20260902015021 72 45 0.9 3.5 0.00 0.15 0.15 87 1014.0
20260902014021 72 45 0.9 2.6 0.00 0.15 0.15 87 1013.9
20260902013021 72 0.0 0.0 0.00 0.15 0.15 87 1013.8
20260902012022 72 0.0 0.9 0.00 0.15 0.15 87 1013.7
20260902011022 72 0.0 1.7 0.00 0.15 0.15 86 1013.6
20260902010101 73 0.0 2.6 0.00 0.15 0.15 86 1013.4
20260902005041 73 0.0 1.7 0.00 0.15 0.15 86 1013.3
20260902004021 73 45 0.9 3.5 0.00 0.15 0.15 86 1013.0
20260902003121 74 0.0 2.6 0.00 0.15 0.15 85 1012.7
20260902002021 74 0.0 2.6 0.00 0.15 0.15 85 1012.5
20260902001020 74 0.0 4.3 0.00 0.15 0.15 85 1012.4
20260902000041 75 68 0.9 4.3 0.00 0.15 0.15 84 1012.4
20260901235020 75 0.0 1.7 0.00 0.15 0.15 84 1012.3
20260901234041 76 68 0.9 4.3 0.00 0.15 0.15 83 1012.3
20260901233021 76 45 0.9 2.6 0.00 0.15 0.15 83 1012.6
20260901232021 77 45 1.7 6.1 0.00 0.15 0.15 83 1012.5
20260901231041 77 45 1.7 4.3 0.00 0.16 0.15 82 1012.5
20260901230023 78 45 0.9 4.3 0.00 0.17 0.15 81 1012.5
20260901225020 78 45 0.9 1.7 0.00 0.17 0.15 81 1012.7